EW8935 Weather Reports


time (UTC)temp
C
wind
direction
speed
KPH
gust
KPH
rain 1hr
cm
rain 24hr
cm
rain mn
cm
humidity
%
barometer
mb
20260510143317 18 0.0 0.0 0.00 0.00 0.00 67 1019.1
20260510142317 18 0.0 0.0 0.00 0.00 0.00 67 1018.9
20260510141337 17 0.0 0.0 0.00 0.00 0.00 69 1018.8
20260510140317 17 0.0 0.0 0.00 0.00 0.00 71 1018.6
20260510135337 17 0.0 0.0 0.00 0.00 0.00 71 1018.5
20260510134316 17 0.0 0.0 0.00 0.00 0.00 72 1018.5
20260510133317 17 0.0 0.0 0.00 0.00 0.00 73 1018.4
20260510132337 16 0.0 0.0 0.00 0.00 0.00 74 1018.3
20260510131316 16 0.0 0.0 0.00 0.00 0.00 74 1018.2
20260510130317 16 0.0 0.0 0.00 0.00 0.00 74 1018.0
20260510125316 16 0.0 0.0 0.00 0.00 0.00 76 1017.8
20260510124317 16 0.0 0.0 0.00 0.00 0.00 79 1017.7
20260510123317 15 0.0 0.0 0.00 0.00 0.00 81 1017.5
20260510122317 15 0.0 0.0 0.00 0.00 0.00 80 1017.4
20260510121316 15 0.0 0.0 0.00 0.00 0.00 82 1017.1
20260510120317 15 0.0 0.0 0.00 0.00 0.00 83 1017.0
20260510115316 14 0.0 0.0 0.00 0.00 0.00 86 1016.9
20260510114316 13 0.0 0.0 0.00 0.00 0.00 87 1016.8
20260510113336 13 0.0 0.0 0.00 0.00 0.00 86 1016.8
20260510112316 13 0.0 0.0 0.00 0.00 0.00 87 1016.5
20260510111316 13 0.0 0.0 0.00 0.00 0.00 88 1016.1
20260510110318 13 0.0 0.0 0.00 0.00 0.00 88 1016.0
20260510105339 13 0.0 0.0 0.00 0.00 0.00 89 1016.0
20260510104318 13 0.0 0.0 0.00 0.00 0.00 89 1016.1
20260510103318 13 0.0 0.0 0.00 0.00 0.00 89 1016.4
20260510102318 13 0.0 0.0 0.00 0.00 0.00 89 1016.2
20260510101318 13 0.0 0.0 0.00 0.00 0.00 89 1015.9
20260510100318 13 0.0 0.0 0.00 0.00 0.00 89 1015.5
20260510095318 13 0.0 0.0 0.00 0.00 0.00 89 1015.4
20260510094318 13 0.0 0.0 0.00 0.00 0.00 88 1015.3
20260510093318 13 0.0 0.0 0.00 0.00 0.00 87 1015.1
20260510092318 13 0.0 0.0 0.00 0.00 0.00 87 1015.1
20260510091319 13 0.0 0.0 0.00 0.00 0.00 87 1014.8
20260510090318 13 0.0 0.0 0.00 0.00 0.00 87 1014.9
20260510085318 13 0.0 0.0 0.00 0.00 0.00 86 1014.8
20260510084318 13 0.0 0.0 0.00 0.00 0.00 86 1014.8
20260510083318 14 0.0 0.0 0.00 0.00 0.00 85 1014.7
20260510082318 14 0.0 0.0 0.00 0.00 0.00 84 1014.7
20260510081339 14 0.0 0.0 0.00 0.00 0.00 84 1014.7
20260510080318 14 0.0 0.0 0.00 0.00 0.00 85 1014.8
20260510075318 14 0.0 0.0 0.00 0.00 0.00 85 1015.0
20260510074318 14 0.0 0.0 0.00 0.00 0.00 85 1014.8
20260510073318 14 0.0 0.0 0.00 0.00 0.00 84 1014.7
20260510072318 14 0.0 0.0 0.00 0.00 0.00 83 1014.6
20260510071318 14 0.0 0.0 0.00 0.00 0.00 83 1014.5
20260510070338 14 0.0 0.0 0.00 0.00 0.00 81 1014.6
20260510065318 15 0.0 0.0 0.00 0.00 0.00 79 1014.6
20260510064318 15 0.0 0.0 0.00 0.00 0.00 79 1014.5
20260510063318 15 0.0 0.0 0.00 0.00 0.00 76 1014.5
20260510062318 16 0.0 0.0 0.00 0.00 0.00 74 1014.7
20260510061318 16 0.0 0.0 0.00 0.00 0.00 75 1014.8
20260510060318 16 0.0 0.0 0.00 0.00 0.00 76 1015.0
20260510055318 15 0.0 0.0 0.00 0.00 0.00 80 1014.7
20260510054318 15 0.0 0.0 0.00 0.00 0.00 83 1014.6
20260510053318 15 0.0 0.0 0.00 0.00 0.00 82 1014.3
20260510052318 15 0.0 0.0 0.00 0.00 0.00 82 1014.2
20260510051318 15 0.0 0.0 0.00 0.00 0.00 81 1014.2
20260510050318 15 0.0 0.0 0.00 0.00 0.00 79 1014.0
20260510045318 16 0.0 0.0 0.00 0.00 0.00 78 1013.9
20260510044318 16 0.0 0.0 0.00 0.00 0.00 78 1013.8
20260510043318 16 0.0 0.0 0.00 0.00 0.00 78 1014.0
20260510042318 15 0.0 0.0 0.00 0.00 0.00 79 1013.9
20260510041318 15 0.0 0.0 0.00 0.00 0.00 80 1013.7
20260510040318 15 0.0 0.0 0.00 0.00 0.00 79 1013.4
20260510035318 15 0.0 0.0 0.00 0.00 0.00 78 1013.2
20260510034317 16 0.0 0.0 0.00 0.00 0.00 77 1013.2
20260510033318 16 0.0 0.0 0.00 0.00 0.00 76 1013.2
20260510032318 16 0.0 0.0 0.00 0.00 0.00 75 1013.1
20260510031318 16 0.0 0.0 0.00 0.00 0.00 73 1012.9
20260510030318 16 0.0 0.0 0.00 0.00 0.00 73 1012.9
20260510025318 17 0.0 0.0 0.00 0.00 0.00 73 1012.7
20260510024338 17 0.0 0.0 0.00 0.00 0.00 70 1012.3
20260510023318 17 0.0 0.0 0.00 0.00 0.00 68 1012.1
20260510022318 18 0.0 0.0 0.00 0.00 0.00 66 1011.8
20260510021318 18 0.0 0.0 0.00 0.00 0.00 66 1011.7
20260510020318 18 0.0 0.0 0.00 0.00 0.00 62 1011.5
20260510015318 20 0.0 0.0 0.00 0.00 0.00 61 1011.4
20260510014318 20 0.0 0.0 0.00 0.00 0.00 56 1011.1
20260510013358 21 0.0 0.0 0.00 0.00 0.00 50 1011.0
20260510012317 22 0.0 0.0 0.00 0.00 0.00 49 1011.0
20260510011337 22 0.0 0.0 0.00 0.00 0.00 49 1010.8
20260510010318 22 0.0 0.0 0.00 0.00 0.00 47 1010.8
20260510005317 23 0.0 0.0 0.00 0.00 0.00 47 1010.7
20260510004318 24 0.0 0.0 0.00 0.00 0.00 43 1010.4
20260510003358 25 0.0 0.0 0.00 0.00 0.00 39 1010.4
20260510002318 25 0.0 0.0 0.00 0.00 0.00 41 1010.5
20260510001317 25 0.0 0.0 0.00 0.00 0.00 41 1010.5
20260510000318 26 0.0 0.0 0.00 0.00 0.00 36 1010.6
20260509235317 25 0.0 0.0 0.00 0.00 0.00 40 1010.5
20260509234337 26 0.0 0.0 0.00 0.00 0.00 35 1010.6
20260509233337 27 0.0 0.0 0.00 0.00 0.00 34 1010.6
20260509232317 27 0.0 0.0 0.00 0.00 0.00 32 1010.7
20260509231317 27 0.0 0.0 0.00 0.00 0.00 33 1010.7
20260509230317 27 0.0 0.0 0.00 0.00 0.00 32 1010.7
20260509225338 27 0.0 0.0 0.00 0.00 0.00 33 1010.6
20260509224317 27 0.0 0.0 0.00 0.00 0.00 31 1010.8
20260509223317 28 0.0 0.0 0.00 0.00 0.00 29 1010.9
20260509222317 28 0.0 0.0 0.00 0.00 0.00 31 1010.9
20260509221317 28 0.0 0.0 0.00 0.00 0.00 31 1011.0
20260509220338 27 0.0 0.0 0.00 0.00 0.00 37 1011.0
20260509215317 28 0.0 0.0 0.00 0.00 0.00 31 1011.0
20260509214317 28 0.0 0.0 0.00 0.00 0.00 30 1010.8
20260509213317 28 0.0 0.0 0.00 0.00 0.00 29 1010.8
20260509212337 28 0.0 0.0 0.00 0.00 0.00 31 1010.8
20260509211317 28 0.0 0.0 0.00 0.00 0.00 31 1011.0
20260509210317 28 0.0 0.0 0.00 0.00 0.00 35 1011.0
20260509205317 28 0.0 0.0 0.00 0.00 0.00 32 1011.2
20260509204317 27 0.0 0.0 0.00 0.00 0.00 31 1011.1
20260509203317 28 0.0 0.0 0.00 0.00 0.00 31 1011.2
20260509202317 28 0.0 0.0 0.00 0.00 0.00 30 1011.3
20260509201337 28 0.0 0.0 0.00 0.00 0.00 35 1011.5
20260509200337 28 0.0 0.0 0.00 0.00 0.00 32 1011.6
20260509195337 29 0.0 0.0 0.00 0.00 0.00 33 1011.8
20260509194317 28 0.0 0.0 0.00 0.00 0.00 37 1011.8
20260509193317 27 0.0 0.0 0.00 0.00 0.00 35 1011.8
20260509192317 28 0.0 0.0 0.00 0.00 0.00 33 1012.0
20260509191317 28 0.0 0.0 0.00 0.00 0.00 29 1011.9
20260509190317 28 0.0 0.0 0.00 0.00 0.00 32 1012.0
20260509185317 27 0.0 0.0 0.00 0.00 0.00 34 1012.0
20260509184317 28 0.0 0.0 0.00 0.00 0.00 35 1012.2
20260509183337 28 0.0 0.0 0.00 0.00 0.00 34 1012.1
20260509182317 27 0.0 0.0 0.00 0.00 0.00 35 1012.1
20260509181357 27 0.0 0.0 0.00 0.00 0.00 35 1012.1
20260509180317 27 0.0 0.0 0.00 0.00 0.00 32 1012.0
20260509175317 27 0.0 0.0 0.00 0.00 0.00 34 1012.2
20260509174337 27 0.0 0.0 0.00 0.00 0.00 34 1012.2
20260509173317 27 0.0 0.0 0.00 0.00 0.00 44 1012.4
20260509172317 26 0.0 0.0 0.00 0.00 0.00 37 1012.4
20260509171317 26 0.0 0.0 0.00 0.00 0.00 38 1012.6
20260509170317 26 0.0 0.0 0.00 0.00 0.00 40 1012.7
20260509165317 26 0.0 0.0 0.00 0.00 0.00 45 1012.8
20260509164317 26 0.0 0.0 0.00 0.00 0.00 41 1012.8
20260509163317 26 0.0 0.0 0.00 0.00 0.00 46 1012.7
20260509162316 25 0.0 0.0 0.00 0.00 0.00 46 1012.6
20260509161317 25 0.0 0.0 0.00 0.00 0.00 46 1012.7
20260509160337 25 0.0 0.0 0.00 0.00 0.00 47 1012.6
20260509155317 24 0.0 0.0 0.00 0.00 0.00 53 1012.5
20260509154317 23 0.0 0.0 0.00 0.00 0.00 53 1012.5
20260509153317 22 0.0 0.0 0.00 0.00 0.00 59 1012.5
20260509152316 22 0.0 0.0 0.00 0.00 0.00 62 1012.4
20260509151316 21 0.0 0.0 0.00 0.00 0.00 66 1012.5
20260509150316 21 0.0 0.0 0.00 0.00 0.00 68 1012.6
20260509145316 20 0.0 0.0 0.00 0.00 0.00 71 1012.4
20260509144316 19 0.0 0.0 0.00 0.00 0.00 75 1012.3